Regional Weather Roundup
Issued by NWS Bismarck, ND

Home | Current Version | Previous Version | Text Only | Print | Product List | Glossary On
Versions: 1 2 3 4 5 6 7 8 9 10 11 12 13 14 15 16 17 18 19 20 21 22 23 24 25 26 27 28 29 30 31 32 33 34 35 36 37 38 39 40 41 42 43 44 45 46 47 48 49 50
000
ASUS43 KBIS 300410
RWRBIS

NWR BROADCAST TEXT
NATIONAL WEATHER SERVICE BISMARCK ND
1100 PM CDT WED JUL 29 2015

NOTE: "FAIR" INDICATES FEW OR NO CLOUDS BELOW 12,000 FEET WITH NO
SIGNIFICANT WEATHER AND/OR OBSTRUCTIONS TO VISIBILITY.


CITY           SKY/WX    TMP DP  RH WIND       PRES   REMARKS
WILLISTON      PTCLDY    66  50  56 NW8       30.08R
MINOT          CLEAR     64  53  67 SW8       30.03R
MINOT AFB      CLEAR     59  58  96 W10       30.02R
BISMARCK       CLEAR     68  52  56 W6        30.08R
DICKINSON      CLEAR     62  47  57 W5        30.13R
GARRISON         N/A     61  52  72 NW9       30.07R
HETTINGER ARPT CLEAR     54  48  80 CALM      30.17R
JAMESTOWN      CLEAR     67  52  58 W7        30.01R
BEACH          FAIR      55  50  82 S6        30.16S
CROSBY         FAIR      61  59  94 NW5       30.07R
HAZEN          FAIR      57  50  77 SW3       30.09R
LINTON         FAIR      61  55  82 SW5       30.09R
MANDAN         FAIR      64  50  59 NW8       30.10R
OAKES            N/A     63  55  77 W6        30.03F
STANLEY        FAIR      57  55  94 W7        30.09R
$$

CITY           SKY/WX    TMP DP  RH WIND       PRES   REMARKS
GRAND FORKS    CLEAR     65  58  78 W8        29.90S
GRAND FORKS AF CLEAR     65  58  77 W8        29.92R
DEVILS LAKE    CLEAR     66  54  63 W13       29.96S
FARGO          CLEAR     69  58  67 W13       29.95R
CAVALIER       FAIR      66  59  77 W5        29.89S
GRAFTON        FAIR      66  61  82 W9        29.90S
GWINNER        FAIR      63  57  82 SW8       30.03R
LANGDON        FAIR      61  57  88 W9        29.95R
ROLLA          FAIR      61  55  82 W10       29.99R
WALHALLA       FAIR      68  61  77 MISG      29.90R
$$

CITY           SKY/WX    TMP DP  RH WIND       PRES   REMARKS
ABERDEEN       CLEAR     61  55  81 SW5       30.06R
MOBRIDGE       CLEAR     59  56  89 CALM      30.07R
BUFFALO          N/A     71  38  29 N9        30.11R
RAPID CITY     CLEAR     61  49  64 NE9       30.20R
GLASGOW        CLEAR     70  44  39 W5        30.08R
SIDNEY         CLEAR    N/A N/A N/A W3        30.09R
WOLF POINT     PTCLDY    64  47  53 NW3       30.09R
GLENDIVE       CLEAR     61  50  67 NW3       30.14R
MILES CITY     CLEAR     70  44  39 N7        30.14R
BAKER          CLEAR     61  42  49 CALM      30.18R
$$

CITY           SKY/WX    TMP DP  RH WIND       PRES   REMARKS
BILLINGS       CLEAR     69  38  32 NW7       30.22R
GREAT FALLS    CLEAR     62  43  49 SW6       30.17R
REGINA         CLOUDY    63  55  77 W12G17    30.03R
ESTEVAN        PTCLDY    64  54  68 W9        30.05R
$$



USA.gov is the U.S. government's official web portal to all federal, state and local government web resources and services.